Augusta Bush, GA

8:41 AM EDT on April 19, 2018 (GMT -0400)
Augusta Regional At Bush

Weather History for KAGS - August, 2013

Change the Weather History Date:

Thursday, August 22, 2013

  Actual Average Record
Temperature  
Mean Temperature 81 °F 80 °F  
Max Temperature 92 °F 91 °F 107 °F (1983)
Min Temperature 70 °F 69 °F 57 °F (1998)
Degree Days  
Heating Degree Days 0 0  
Month to date heating degree days 0 0  
Since 1 June heating degree days 0 0  
Since 1 July heating degree days 0 0  
Cooling Degree Days 16 15  
Month to date cooling degree days 311 352  
Year to date cooling degree days 1369 1558  
Since 1 June cooling degree days 1160 1275  
Growing Degree Days 30 (Base 50)    
Moisture  
Dew Point 72 °F    
Average Humidity 75    
Maximum Humidity 100    
Minimum Humidity 49    
Precipitation  
Precipitation 0.10 in 0.14 in 1.98 in (1952)
Month to date precipitation 5.77 3.16  
Year to date precipitation 45.25 29.71  
Sea Level Pressure  
Sea Level Pressure 30.12 in    
Wind  
Wind Speed 3 mph (WSW)    
Max Wind Speed 20 mph    
Max Gust Speed 24 mph    
Visibility 6 miles    
Events Fog , Rain , Thunderstorm    
T = Trace of Precipitation, MM = Missing Value Source: NWS Daily Summary

Daily Weather History Graph

Daily Weather History Graph

Search for Another Location

Airport or City:

Trip Planner

Search our weather history database for the weather conditions in past years. The results will help you decide how hot, cold, wet, or windy it might be!

Date:

Astronomy

Aug. 22, 2013 Rise Set
Actual Time 6:55 AM EDT 8:05 PM EDT
Civil Twilight 6:29 AM EDT 8:31 PM EDT
Nautical Twilight 5:58 AM EDT 9:01 PM EDT
Astronomical Twilight 5:27 AM EDT 9:33 PM EDT
Moon 8:58 PM EDT (8/22) 8:34 AM EDT (8/22)
Length of Visible Light 14h 01m
Length of Day
13h 09m
Waning Gibbous, 97% of the Moon is Illuminated
Aug 22
Waning Gibbous
Aug 28
Last Quarter
Sep 5
New
Sep 12
First Quarter
Sep 19
Full

Hourly Weather History & Observations

Time (EDT) Temp. Heat Index Dew Point Humidity Pressure Visibility Wind Dir Wind Speed Gust Speed Precip Events Conditions
12:53 AM 73.0 °F - 72.0 °F 96% 30.16 in 5.0 mi Calm Calm - N/A   Clear
1:53 AM 72.0 °F - 71.1 °F 97% 30.16 in 2.0 mi Calm Calm - N/A   Clear
2:12 AM 71.6 °F - 71.6 °F 100% 30.15 in 9.0 mi Calm Calm - N/A   Clear
2:20 AM 71.6 °F - 71.6 °F 100% 30.15 in 1.8 mi Calm Calm - N/A   Clear
2:29 AM 71.6 °F - 71.6 °F 100% 30.15 in 0.5 mi Calm Calm - N/A Fog Fog
2:44 AM 71.6 °F - 71.6 °F 100% 30.15 in 1.0 mi Calm Calm - N/A   Mist
2:53 AM 72.0 °F - 72.0 °F 100% 30.15 in 2.0 mi Calm Calm - N/A   Partly Cloudy
3:01 AM 71.6 °F - 71.6 °F 100% 30.15 in 6.0 mi Calm Calm - N/A   Partly Cloudy
3:53 AM 73.0 °F - 72.0 °F 96% 30.15 in 7.0 mi Calm Calm - N/A   Partly Cloudy
4:53 AM 72.0 °F - 71.1 °F 97% 30.14 in 5.0 mi Calm Calm - N/A   Clear
5:53 AM 73.0 °F - 72.0 °F 96% 30.14 in 9.0 mi Calm Calm - 0.01 in   Clear
6:14 AM 71.6 °F - 71.6 °F 100% 30.15 in 1.8 mi Calm Calm - N/A   Clear
6:25 AM 71.6 °F - 71.6 °F 100% 30.15 in 3.0 mi Calm Calm - N/A   Clear
6:30 AM 71.6 °F - 71.6 °F 100% 30.15 in 1.5 mi Calm Calm - N/A   Clear
6:43 AM 71.6 °F - 69.8 °F 94% 30.16 in 3.0 mi Calm Calm - N/A   Clear
6:48 AM 71.6 °F - 71.6 °F 100% 30.16 in 1.5 mi Calm Calm - N/A   Clear
6:53 AM 70.0 °F - 70.0 °F 100% 30.15 in 3.0 mi Calm Calm - N/A   Clear
6:56 AM 69.8 °F - 69.8 °F 100% 30.15 in 0.5 mi Calm Calm - N/A Fog Fog
7:03 AM 71.6 °F - 69.8 °F 94% 30.16 in 3.0 mi Calm Calm - N/A   Clear
7:53 AM 72.0 °F - 72.0 °F 100% 30.16 in 4.0 mi Calm Calm - N/A   Partly Cloudy
8:01 AM 73.4 °F - 71.6 °F 94% 30.16 in 1.8 mi Calm Calm - N/A   Mostly Cloudy
8:06 AM 73.4 °F - 71.6 °F 94% 30.17 in 0.5 mi Calm Calm - N/A Fog Fog
8:15 AM 73.4 °F - 73.4 °F 100% 30.17 in 0.5 mi Calm Calm - N/A Fog Fog
8:53 AM 73.9 °F - 73.0 °F 97% 30.16 in 0.8 mi Calm Calm - N/A Fog Fog
9:11 AM 73.4 °F - 73.4 °F 100% 30.17 in 0.8 mi Calm Calm - N/A   Mist
9:29 AM 75.2 °F - 73.4 °F 94% 30.17 in 3.0 mi Calm Calm - N/A   Partly Cloudy
9:53 AM 80.1 °F 85.1 °F 75.0 °F 85% 30.17 in 6.0 mi Calm Calm - N/A   Haze
10:53 AM 84.0 °F 90.2 °F 73.0 °F 69% 30.16 in 10.0 mi Variable 3.5 mph - N/A   Clear
11:53 AM 87.1 °F 93.6 °F 72.0 °F 61% 30.14 in 10.0 mi Variable 5.8 mph - N/A   Partly Cloudy
12:53 PM 88.0 °F 93.8 °F 71.1 °F 57% 30.13 in 10.0 mi WNW 5.8 mph - N/A   Scattered Clouds
1:53 PM 90.0 °F 96.4 °F 71.1 °F 54% 30.10 in 10.0 mi NNW 3.5 mph - N/A   Partly Cloudy
2:53 PM 91.0 °F 97.6 °F 71.1 °F 52% 30.07 in 10.0 mi North 5.8 mph - N/A   Scattered Clouds
3:53 PM 91.9 °F 98.4 °F 71.1 °F 50% 30.04 in 10.0 mi Calm Calm - N/A   Mostly Cloudy
4:53 PM 91.0 °F 96.6 °F 70.0 °F 50% 30.04 in 10.0 mi South 4.6 mph - N/A   Scattered Clouds
5:53 PM 89.1 °F 94.1 °F 70.0 °F 53% 30.02 in 10.0 mi Calm Calm - N/A   Clear
6:53 PM 88.0 °F 94.7 °F 72.0 °F 59% 30.02 in 10.0 mi Calm Calm - N/A   Scattered Clouds
7:53 PM 81.0 °F 84.4 °F 70.0 °F 69% 30.02 in 10.0 mi West 18.4 mph 24.2 mph 0.00 in Rain Light Rain
8:51 PM 77.0 °F - 73.4 °F 89% 30.05 in 10.0 mi SSW 4.6 mph - 0.03 in Thunderstorm Mostly Cloudy
8:53 PM 77.0 °F - 73.9 °F 90% 30.05 in 10.0 mi South 9.2 mph - 0.03 in Thunderstorm Mostly Cloudy
9:29 PM 75.2 °F - 71.6 °F 89% 30.08 in 5.0 mi SW 8.1 mph - 0.00 in Rain Rain
9:53 PM 75.0 °F - 72.0 °F 90% 30.09 in 10.0 mi WSW 3.5 mph - 0.03 in Rain Light Rain
10:53 PM 73.9 °F - 73.0 °F 97% 30.06 in 10.0 mi West 3.5 mph - 0.04 in Rain Light Rain
11:53 PM 73.9 °F - 73.0 °F 97% 30.06 in 10.0 mi Calm Calm - 0.00 in   Clear